LFLL

Lyon/Saint-Exupery

Airport
ICAO code
LFLL
IATA Code
LYS
Summary
ICAO Region
EUR
ICAO Territory
Location

Colombier-Saugnieu, Rhone-Alpes

Serving
Lyon
Elevation
821 ft
Coordinates
45° 43' 32" N , 5° 4' 52" E
KCC
Metar
LFLL 270930Z 35005KT 330V030 9999 FEW040 BKN056 17/12 Q1020 NOSIG

Description

International airport serving city of Lyon in France; formerly known as Lyon Satolas.

Climatology

Humid Subtropical (Köppen climate classification Cfa).

Runways

Designator Length Width Surface Rops
18L/36R 2670 45 ASP Yes/Yes
18R/36L 4000 45 ASP Yes/Yes

SKYbrary Partners:

Safety knowledge contributed by: